| time (UTC) | temp C | wind direction | speed KPH | gust KPH | rain 1hr cm | rain 24hr cm | rain mn cm | humidity % | barometer mb |
| 20260506111549 | 22 | 184 | 1.6 | 4.8 | 0.00 | 0.00 | 0.00 | 94 | 1011.1 |
| 20260506110047 | 22 | 0 | 1.6 | 4.8 | 0.00 | 0.00 | 0.00 | 94 | 1011.0 |
| 20260506104550 | 22 | 0 | 0.0 | 4.8 | 0.00 | 0.00 | 0.00 | 94 | 1010.9 |
| 20260506103047 | 22 | 0 | 3.2 | 8.0 | 0.00 | 0.00 | 0.00 | 93 | 1010.6 |
| 20260506101549 | 22 | 182 | 4.8 | 11.3 | 0.00 | 0.00 | 0.00 | 93 | 1010.4 |
| 20260506100050 | 22 | 182 | 6.4 | 12.9 | 0.00 | 0.00 | 0.00 | 93 | 1010.5 |
| 20260506094619 | 22 | 184 | 8.0 | 16.1 | 0.00 | 0.00 | 0.00 | 93 | 1010.2 |
| 20260506093047 | 22 | 185 | 9.7 | 19.3 | 0.00 | 0.00 | 0.00 | 92 | 1010.3 |
| 20260506091553 | 22 | 188 | 9.7 | 17.7 | 0.00 | 0.00 | 0.00 | 92 | 1010.4 |
| 20260506090051 | 22 | 180 | 11.3 | 22.5 | 0.00 | 0.00 | 0.00 | 92 | 1010.2 |
| 20260506084555 | 22 | 178 | 11.3 | 17.7 | 0.00 | 0.00 | 0.00 | 93 | 1010.3 |
| 20260506083053 | 22 | 184 | 11.3 | 20.9 | 0.00 | 0.00 | 0.00 | 93 | 1010.2 |
| 20260506081617 | 22 | 196 | 9.7 | 17.7 | 0.00 | 0.00 | 0.00 | 93 | 1010.5 |
| 20260506073051 | 22 | 180 | 9.7 | 24.1 | 0.00 | 0.00 | 0.00 | 94 | 1010.4 |
| 20260506071550 | 22 | 194 | 9.7 | 20.9 | 0.00 | 0.00 | 0.00 | 94 | 1010.6 |
| 20260506061551 | 22 | 164 | 8.0 | 14.5 | 0.00 | 0.00 | 0.00 | 93 | 1010.3 |
| 20260506060109 | 22 | 175 | 11.3 | 19.3 | 0.00 | 0.00 | 0.00 | 93 | 1009.8 |
| 20260506044544 | 23 | 175 | 11.3 | 17.7 | 0.00 | 0.00 | 0.00 | 91 | 1009.9 |
| 20260506043047 | 23 | 180 | 9.7 | 19.3 | 0.00 | 0.00 | 0.00 | 91 | 1009.9 |
| 20260506041550 | 23 | 188 | 11.3 | 22.5 | 0.00 | 0.00 | 0.00 | 90 | 1009.8 |
| 20260506040050 | 23 | 168 | 16.1 | 30.6 | 0.00 | 0.00 | 0.00 | 90 | 1009.4 |
| 20260506034546 | 23 | 173 | 14.5 | 25.7 | 0.00 | 0.00 | 0.00 | 90 | 1009.2 |
| 20260506033047 | 23 | 172 | 16.1 | 24.1 | 0.00 | 0.00 | 0.00 | 90 | 1009.0 |
| 20260506031551 | 23 | 166 | 11.3 | 20.9 | 0.00 | 0.00 | 0.00 | 90 | 1009.0 |
| 20260506030052 | 23 | 140 | 9.7 | 19.3 | 0.00 | 0.00 | 0.00 | 90 | 1008.7 |
| 20260506024557 | 23 | 147 | 3.2 | 11.3 | 0.00 | 0.00 | 0.00 | 90 | 1008.6 |
| 20260506023046 | 23 | 147 | 4.8 | 11.3 | 0.00 | 0.00 | 0.00 | 89 | 1008.3 |
| 20260506021545 | 23 | 163 | 1.6 | 8.0 | 0.00 | 0.00 | 0.00 | 89 | 1008.1 |
| 20260506020047 | 23 | 0 | 0.0 | 4.8 | 0.00 | 0.00 | 0.00 | 88 | 1007.9 |
| 20260506014549 | 23 | 0 | 0.0 | 8.0 | 0.00 | 0.00 | 0.00 | 87 | 1007.9 |
| 20260506013049 | 24 | 179 | 3.2 | 9.7 | 0.00 | 0.00 | 0.00 | 85 | 1007.8 |
| 20260506011547 | 25 | 170 | 4.8 | 14.5 | 0.00 | 0.00 | 0.00 | 83 | 1007.5 |
| 20260506010046 | 25 | 185 | 6.4 | 17.7 | 0.00 | 0.00 | 0.00 | 82 | 1007.5 |
| 20260506004552 | 26 | 164 | 8.0 | 17.7 | 0.00 | 0.00 | 0.00 | 81 | 1007.5 |
| 20260506003050 | 26 | 183 | 3.2 | 14.5 | 0.00 | 0.00 | 0.00 | 80 | 1007.6 |
| 20260506001550 | 26 | 199 | 8.0 | 14.5 | 0.00 | 0.00 | 0.00 | 79 | 1007.3 |
| 20260506000056 | 27 | 180 | 12.9 | 20.9 | 0.00 | 0.00 | 0.00 | 77 | 1007.1 |
| 20260505234551 | 27 | 186 | 12.9 | 22.5 | 0.00 | 0.00 | 0.00 | 78 | 1007.2 |
| 20260505233050 | 27 | 173 | 14.5 | 27.4 | 0.00 | 0.00 | 0.00 | 77 | 1006.9 |
| 20260505231601 | 26 | 192 | 12.9 | 30.6 | 0.00 | 0.00 | 0.00 | 77 | 1007.0 |
| 20260505230057 | 27 | 201 | 19.3 | 37.0 | 0.00 | 0.00 | 0.00 | 76 | 1006.9 |
| 20260505224554 | 27 | 164 | 17.7 | 35.4 | 0.00 | 0.00 | 0.00 | 76 | 1006.7 |
| 20260505223043 | 27 | 173 | 16.1 | 29.0 | 0.00 | 0.00 | 0.00 | 75 | 1006.9 |
| 20260505221552 | 27 | 192 | 19.3 | 33.8 | 0.00 | 0.00 | 0.00 | 76 | 1006.9 |
| 20260505220055 | 27 | 219 | 17.7 | 33.8 | 0.00 | 0.00 | 0.00 | 75 | 1006.9 |
| 20260505214544 | 27 | 188 | 14.5 | 30.6 | 0.00 | 0.00 | 0.00 | 77 | 1007.2 |
| 20260505213058 | 27 | 202 | 16.1 | 29.0 | 0.00 | 0.00 | 0.00 | 76 | 1007.2 |
| 20260505211550 | 27 | 198 | 19.3 | 30.6 | 0.00 | 0.00 | 0.00 | 76 | 1007.6 |
| 20260505210050 | 26 | 174 | 16.1 | 32.2 | 0.00 | 0.00 | 0.00 | 77 | 1007.8 |
| 20260505204550 | 27 | 188 | 17.7 | 29.0 | 0.00 | 0.00 | 0.00 | 77 | 1007.7 |
| 20260505203048 | 27 | 202 | 19.3 | 37.0 | 0.00 | 0.00 | 0.00 | 77 | 1007.7 |
| 20260505201549 | 26 | 221 | 19.3 | 41.8 | 0.00 | 0.00 | 0.00 | 78 | 1007.9 |
| 20260505200049 | 26 | 178 | 27.4 | 41.8 | 0.00 | 0.00 | 0.00 | 78 | 1008.0 |
| 20260505194552 | 26 | 201 | 20.9 | 41.8 | 0.00 | 0.00 | 0.00 | 79 | 1008.2 |
| 20260505193049 | 26 | 186 | 22.5 | 41.8 | 0.00 | 0.00 | 0.00 | 80 | 1008.5 |
| 20260505191608 | 25 | 183 | 25.7 | 46.7 | 0.00 | 0.00 | 0.00 | 80 | 1008.3 |
| 20260505190052 | 26 | 208 | 25.7 | 43.5 | 0.00 | 0.00 | 0.00 | 79 | 1008.3 |
| 20260505184550 | 25 | 219 | 24.1 | 37.0 | 0.00 | 0.00 | 0.00 | 81 | 1008.5 |
| 20260505183050 | 25 | 187 | 22.5 | 40.2 | 0.00 | 0.00 | 0.00 | 84 | 1008.8 |
| 20260505181551 | 24 | 190 | 19.3 | 45.1 | 0.00 | 0.00 | 0.00 | 85 | 1009.0 |
| 20260505174559 | 23 | 177 | 19.3 | 35.4 | 0.00 | 0.00 | 0.00 | 86 | 1009.2 |
| 20260505173047 | 23 | 177 | 25.7 | 37.0 | 0.00 | 0.00 | 0.00 | 86 | 1009.2 |
| 20260505171551 | 22 | 190 | 20.9 | 38.6 | 0.00 | 0.00 | 0.00 | 87 | 1009.4 |
| 20260505170049 | 22 | 221 | 19.3 | 33.8 | 0.00 | 0.00 | 0.00 | 88 | 1009.5 |
| 20260505164552 | 22 | 190 | 20.9 | 37.0 | 0.00 | 0.00 | 0.00 | 89 | 1009.6 |
| 20260505163046 | 22 | 178 | 16.1 | 33.8 | 0.00 | 0.00 | 0.00 | 89 | 1009.7 |
| 20260505161553 | 22 | 172 | 19.3 | 38.6 | 0.00 | 0.00 | 0.00 | 89 | 1009.7 |
| 20260505153050 | 21 | 191 | 16.1 | 30.6 | 0.00 | 0.00 | 0.00 | 90 | 1009.6 |
| 20260505151551 | 21 | 180 | 16.1 | 30.6 | 0.00 | 0.00 | 0.00 | 90 | 1009.7 |
| 20260505124550 | 20 | 185 | 20.9 | 32.2 | 0.00 | 0.00 | 0.00 | 88 | 1008.5 |
| 20260505123051 | 20 | 192 | 17.7 | 32.2 | 0.00 | 0.00 | 0.00 | 88 | 1008.4 |
| 20260505121554 | 20 | 184 | 17.7 | 35.4 | 0.00 | 0.00 | 0.00 | 88 | 1008.2 |
| 20260505120053 | 20 | 195 | 20.9 | 33.8 | 0.00 | 0.00 | 0.00 | 88 | 1008.2 |
| 20260505114555 | 20 | 166 | 19.3 | 35.4 | 0.00 | 0.00 | 0.00 | 89 | 1008.3 |
| 20260505113049 | 20 | 182 | 17.7 | 33.8 | 0.00 | 0.00 | 0.00 | 89 | 1008.2 |